Regional Weather Roundup
Issued by NWS Bismarck, ND

Home | Current Version | Previous Version | Text Only | Print | Product List | Glossary On
Versions: 1 2 3 4 5 6 7 8 9 10 11 12 13 14 15 16 17 18 19 20 21 22 23 24 25 26 27 28 29 30 31 32 33 34 35 36 37 38 39 40 41 42 43 44 45 46 47 48 49 50
000
ASUS43 KBIS 130310
RWRBIS

NWR BROADCAST TEXT
NATIONAL WEATHER SERVICE BISMARCK ND
900 PM CST TUE DEC 12 2017

NOTE: "FAIR" INDICATES FEW OR NO CLOUDS BELOW 12,000 FEET WITH NO
SIGNIFICANT WEATHER AND/OR OBSTRUCTIONS TO VISIBILITY.


CITY           SKY/WX    TMP DP  RH WIND       PRES   REMARKS
WILLISTON      MOCLDY    48  27  44 NW36G46   29.71R
MINOT          FAIR      46  23  40 W30G44    29.54R
MINOT AFB      CLOUDY    44  25  46 NW28G41   29.52R
BISMARCK       FAIR      49  19  30 W14       29.59F
DICKINSON      FAIR      47  18  31 W28G36    29.68S
GARRISON         N/A     46  18  32 NW22G35   29.56F
HETTINGER ARPT CLOUDY    50  13  22 W29G37    29.73F
JAMESTOWN      FAIR      39  29  67 W8        29.51F
CARRINGTON     FAIR      39  28  65 W14       29.51F
HAZEN          FAIR      46  19  34 W17       29.61F
LINTON           N/A     45  23  42 W13       29.61F
MANDAN         FAIR      48  19  32 W29G39    29.57F
OAKES            N/A     30  27  86 S13       29.57F
RUGBY          FAIR      37  25  60 W12       29.48F
STANLEY        MOCLDY    41  30  65 NW25G36   29.64R
TIOGA          FAIR      41  28  60 NW26G33   29.68R
WATFORD CITY   FAIR      46  25  42 NW21G30   29.70R
$$

CITY           SKY/WX    TMP DP  RH WIND       PRES   REMARKS
GRAND FORKS    CLOUDY    30  28  92 S9        29.47F
GRAND FORKS AF CLOUDY    35  29  77 W8        29.46F
DEVILS LAKE    CLOUDY    37  28  70 W13       29.46F
FARGO          PTCLDY    35  29  78 S10       29.53F
CANDO          MOCLDY    37  25  60 W12       29.46F
CAVALIER       FAIR      28  27  93 S7        29.43F
GRAFTON        FAIR      28  28 100 S8        29.47F
GWINNER          N/A     34  27  75 SW13      29.56F
LANGDON        FAIR      34  32  93 W9        29.44F
ROLLA          CLOUDY    43  27  52 NW18      29.47R
WALHALLA       FAIR      39  28  65 NW7       29.43F
$$

CITY           SKY/WX    TMP DP  RH WIND       PRES   REMARKS
ABERDEEN       CLOUDY    32  26  78 SW8       29.63F
MOBRIDGE       CLOUDY    45  25  45 W7        29.64F
BUFFALO          N/A     53  13  20 W32G39    29.78S
RAPID CITY     CLOUDY    55  11  17 NW20      29.87F
GLASGOW        CLOUDY    48  24  39 NW26G35   29.94R
SIDNEY         CLOUDY    49  26  41 NW21G32   29.79R
WOLF POINT     CLOUDY    51  26  37 NW25G38   29.88R
GLENDIVE       CLOUDY    50  23  34 NW26G33   29.86R
MILES CITY     CLOUDY    52  17  25 NW16G31   29.99R
BAKER          PTCLDY    48  19  31 NW26G33   29.86R
$$

CITY           SKY/WX    TMP DP  RH WIND       PRES   REMARKS
BILLINGS       CLOUDY    54   6  14 NW15G26   30.10S
GREAT FALLS    CLOUDY    44   6  21 W16       30.19R
REGINA         CLOUDY    37  30  75 NW20      29.74R
ESTEVAN        CLOUDY    39  30  70 NW29G37   29.66R
$$





USA.gov is the U.S. government's official web portal to all federal, state and local government web resources and services.